PEGASUS DEB, 24151

Orbit data source: Space-Track

PEGASUS DEB, 24151 is space debris in LEO originally from a launch on Thu, 19 May 1994 UTC launched from the Air Force Western Test Range (AFWTR). Debris objects in space refer to the collection of defunct objects orbiting the Earth. Examples of debris include non-operational satellites, rocket bodies, and fragments generated from explosions, collisions, or faulty payload assembly.

Loading next visibility...
Identifier
24151, 1994-029HA
Orbit
LEO
Country
Flag of USUS
Related business
Manufacturer
Unknown
Mission
Spacecraft
Bus & Motor
Unknown
Mass
Unknown
Launch date (UTC)
1994-05-19 (32 years ago)
Launch vehicle
Unknown
Launch site
Air Force Western Test Range (AFWTR)
Object type
Payload
Rocket body
Debris
Shape & HBR
Unknown shape, 0.2 m
Radar Cross Section
Medium (>0.1 m² and <1 m²)

Expand to show TLE details & history
Last TLE update: 9 hours ago

TLE from 9 hours ago
0 PEGASUS DEB
1 24151U 94029HA  26175.28876533  .00001280  00000-0  20531-3 0  9995
2 24151  82.0168 182.5032 0150011  24.3841 336.4361 14.63666424593949
Epoch: 2026-06-24T06:55Z
TLE epoch observation values (Epoch: 2026-06-24T06:55:49.324Z)
Latitude
-0.00005°
Longitude
166.09955°
Altitude
587.526 km
Speed
7.618 km/s
True Right ascension
12h 10m 00s
True Declination
0° 00' 00"
Sunlit
Object was in daylight at epoch
Visualization orbit readout
Latitude
Unknown
Longitude
Unknown
Altitude
Unknown
Speed
Unknown
Apparent Right ascension
Unknown
Apparent Declination
Unknown
Sunlit
N/A
Visualization observer readout
Local Sidereal Time
03:36:16
Azimuth
Unknown
Elevation
Unknown
Doppler factor
Unknown
Orbital elements
Apogee altitude
784.282 km
Perigee altitude
572.569 km
Semi-major axis
7,056.563 km
Eccentricity
0.015
Inclination
82.0168°
RAAN
182.5032°
Arg. of periapsis
24.3841°
True anomaly
335.7369°
Mean anomaly
336.4361°
Eccentric anomaly
336.08771°
Mean motion
3.66145 °/min
Orbital period
98.32 mins
BSTAR
0.00020531
Loading maneuver chart data...
Computing Atmospheric mass density...

Documentation

Showing up to 5 results
|